{"data":{"norad_id":60341,"epoch":"2026-09-21T06:00:15.291936Z","epoch_age_seconds":120741,"freshness":"FRESH","line1":"1 60341U 24136N   26264.25017699  .00016464  00000+0  49863-3 0  9992","line2":"2 60341  53.1571 246.0374 0001351 111.3880 248.7267 15.34318061119623","mean_motion":15.34318061,"eccentricity":0.0001351,"inclination_deg":53.1571,"raan_deg":246.0374,"arg_perigee_deg":111.388,"mean_anomaly_deg":248.7267,"bstar":0.00049863,"rev_number":11962,"period_min":93.852769944028,"perigee_km":462.02256060111,"apogee_km":463.87102144145,"semimajor_km":6841.0837910213,"source":"CELESTRAK","updated_at":"2026-09-22T09:00:49.221003Z"}}